KC5LIO Weather Reports


time (UTC)temp
C
wind
direction
speed
KPH
gust
KPH
rain 1hr
cm
rain 24hr
cm
rain mn
cm
humidity
%
barometer
mb
20260906011705 26 180 0.0 0.0 0.00 0.13 0.13 89 1010.4
20260906010204 26 180 0.0 0.0 0.00 0.13 0.13 88 1010.5
20260906004705 26 180 0.0 0.0 0.00 0.13 0.13 87 1010.2
20260906003204 27 180 0.0 0.0 0.00 0.13 0.13 87 1010.3
20260906001704 27 180 0.0 0.0 0.00 0.13 0.13 86 1010.3
20260906000204 28 180 0.0 0.0 0.00 0.13 0.13 86 1010.2
20260905233204 28 180 0.0 8.0 0.00 0.13 0.13 86 1010.2
20260905231704 28 180 0.0 3.2 0.00 0.13 0.13 86 1010.3
20260905230204 28 180 0.0 1.6 0.00 0.13 0.13 86 1010.1
20260905224704 28 180 0.0 3.2 0.00 0.13 0.13 86 1010.1
20260905223204 29 180 0.0 3.2 0.00 0.13 0.13 84 1010.2
20260905221704 29 180 0.0 4.8 0.00 0.13 0.13 85 1010.4
20260905220204 30 180 1.6 8.0 0.00 0.13 0.13 82 1010.5
20260905214704 30 158 1.6 8.0 0.00 0.13 0.13 82 1010.6
20260905213204 30 158 3.2 8.0 0.00 0.13 0.13 83 1010.7
20260905211704 30 180 3.2 8.0 0.00 0.13 0.13 82 1011.0
20260905204704 26 180 0.0 1.6 0.00 0.13 0.13 88 1010.7
20260905203204 26 180 1.6 9.7 0.00 0.13 0.13 88 1010.9
20260905201705 27 180 4.8 9.7 0.00 0.13 0.13 87 1011.0
20260905200204 27 112 4.8 9.7 0.00 0.13 0.13 86 1011.3
20260905194704 28 68 3.2 8.0 0.00 0.13 0.13 86 1011.6
20260905193204 27 270 3.2 3.2 0.00 0.13 0.13 87 1011.7
20260905191705 28 270 3.2 3.2 0.00 0.13 0.13 84 1011.7
20260905190204 30 292 1.6 4.8 0.00 0.13 0.13 81 1011.8
20260905184704 29 270 3.2 8.0 0.00 0.13 0.13 81 1012.3
20260905183204 31 63 6.4 11.3 0.00 0.13 0.13 77 1012.2
20260905181704 32 180 8.0 11.3 0.00 0.13 0.13 74 1012.1
20260905180206 31 225 3.2 3.2 0.00 0.13 0.13 79 1012.5
20260905174704 29 225 3.2 4.8 0.00 0.13 0.13 81 1012.5
20260905173204 30 292 3.2 4.8 0.00 0.13 0.13 80 1012.6
20260905171704 30 292 0.0 4.8 0.00 0.13 0.13 80 1012.7
20260905170204 31 292 4.8 8.0 0.00 0.13 0.13 76 1012.9
20260905164704 31 90 3.2 9.7 0.00 0.13 0.13 75 1013.0
20260905163204 31 81 4.8 9.7 0.00 0.13 0.13 79 1013.0
20260905161704 31 248 3.2 4.8 0.00 0.13 0.13 78 1013.1
20260905154704 30 82 4.8 9.7 0.13 0.13 0.13 81 1013.0
20260905150204 27 68 1.6 3.2 0.13 0.13 0.13 89 1013.1
20260905143204 29 68 3.2 4.8 0.00 0.20 0.00 83 1012.8
20260905140205 30 68 4.8 8.0 0.00 0.25 0.00 82 1012.9
20260905134704 30 68 1.6 3.2 0.00 0.25 0.00 84 1012.8
20260905131704 27 68 3.2 4.8 0.00 0.25 0.00 86 1012.8
20260905130205 26 68 1.6 3.2 0.00 0.25 0.00 89 1012.7
20260905124704 25 68 0.0 1.6 0.00 0.25 0.00 90 1012.6
20260905123204 26 68 0.0 1.6 0.00 0.25 0.00 89 1012.5
20260905121705 24 68 0.0 0.0 0.00 0.25 0.00 92 1012.5
20260905120204 23 68 0.0 0.0 0.00 0.25 0.00 93 1012.3
20260905114705 23 68 0.0 0.0 0.00 0.25 0.00 93 1012.3
20260905113204 23 68 0.0 0.0 0.00 0.25 0.00 93 1012.2
20260905110204 23 68 0.0 3.2 0.00 0.25 0.00 93 1012.0
20260905104704 23 68 0.0 1.6 0.00 0.25 0.00 93 1011.9
20260905103204 23 68 1.6 1.6 0.00 0.25 0.00 93 1012.0
20260905100204 23 68 0.0 1.6 0.00 0.25 0.00 93 1011.8
20260905094705 23 68 0.0 1.6 0.00 0.25 0.00 93 1012.0
20260905093204 23 68 0.0 3.2 0.00 0.25 0.00 93 1011.7
20260905091704 23 68 0.0 0.0 0.00 0.25 0.00 93 1011.8
20260905090204 23 68 0.0 0.0 0.00 0.25 0.00 93 1011.8
20260905084704 23 68 0.0 0.0 0.00 0.25 0.00 93 1011.8
20260905083204 23 68 0.0 0.0 0.00 0.25 0.00 92 1011.6
20260905081704 23 68 0.0 0.0 0.00 0.25 0.00 92 1011.5
20260905074705 23 68 0.0 1.6 0.00 0.25 0.00 92 1011.8
20260905073204 23 68 1.6 1.6 0.00 0.25 0.00 92 1011.6
20260905071704 23 68 1.6 1.6 0.00 0.25 0.00 92 1011.8
20260905070205 23 68 0.0 0.0 0.00 0.25 0.00 92 1011.5
20260905064705 23 68 0.0 0.0 0.00 0.25 0.00 92 1011.4
20260905063204 23 68 0.0 0.0 0.00 0.25 0.00 92 1011.4
20260905061704 23 68 0.0 0.0 0.00 0.25 0.00 92 1011.4
20260905060204 23 68 0.0 0.0 0.00 0.25 0.00 92 1011.6
20260905054704 23 68 0.0 0.0 0.00 0.25 0.00 92 1011.5
20260905053204 23 68 0.0 1.6 0.00 0.36 0.00 92 1011.7
20260905051704 23 68 0.0 1.6 0.00 0.51 0.00 92 1011.9
20260905050204 23 68 0.0 1.6 0.00 0.61 0.00 92 1012.3
20260905044704 23 68 0.0 0.0 0.00 0.64 0.61 92 1012.2
20260905043204 23 68 0.0 0.0 0.00 0.64 0.61 92 1012.4
20260905041705 23 68 0.0 0.0 0.00 0.64 0.61 92 1012.5
20260905040204 23 68 0.0 3.2 0.00 0.64 0.61 92 1012.8
20260905033204 24 68 0.0 1.6 0.00 0.64 0.61 91 1012.9
20260905030205 24 68 0.0 4.8 0.00 0.64 0.61 91 1013.0
20260905024704 24 68 1.6 8.0 0.00 0.64 0.61 91 1012.9
20260905023204 24 90 3.2 3.2 0.00 0.64 0.61 91 1012.9
20260905020204 24 22 0.0 3.2 0.00 0.64 0.61 91 1012.7
20260905014704 25 0 0.0 3.2 0.00 0.64 0.61 91 1012.5
20260905013204 25 45 1.6 3.2 0.00 0.64 0.61 90 1012.5